Year,Month,Day,Hour,Minute,Value (Times are PST for temperature in C)
2013,03,28,00,00,6.30
2013,03,28,00,01,6.30
2013,03,28,00,02,6.20
2013,03,28,00,03,6.20
2013,03,28,00,04,6.20
2013,03,28,00,05,6.20
2013,03,28,00,06,6.20
2013,03,28,00,07,6.20
2013,03,28,00,08,6.20
2013,03,28,00,09,6.20
2013,03,28,00,10,6.20
2013,03,28,00,11,6.20
2013,03,28,00,12,6.20
2013,03,28,00,13,6.20
2013,03,28,00,14,6.20
2013,03,28,00,15,6.20
2013,03,28,00,16,6.20
2013,03,28,00,17,6.10
2013,03,28,00,18,6.10
2013,03,28,00,19,6.10
2013,03,28,00,20,6.10
2013,03,28,00,21,6.10
2013,03,28,00,22,6.10
2013,03,28,00,23,6.10
2013,03,28,00,24,6.10
2013,03,28,00,25,6.10
2013,03,28,00,26,6.10
2013,03,28,00,27,6.10
2013,03,28,00,28,6.00
2013,03,28,00,29,6.00
2013,03,28,00,30,6.00
2013,03,28,00,31,6.00
2013,03,28,00,32,6.00
2013,03,28,00,33,5.90
2013,03,28,00,34,5.90
2013,03,28,00,35,5.90
2013,03,28,00,36,5.90
2013,03,28,00,37,5.90
2013,03,28,00,38,5.90
2013,03,28,00,39,5.90
2013,03,28,00,40,5.80
2013,03,28,00,41,5.80
2013,03,28,00,42,5.80
2013,03,28,00,43,5.80
2013,03,28,00,44,5.80
2013,03,28,00,45,5.80
2013,03,28,00,46,5.70
2013,03,28,00,47,5.70
2013,03,28,00,48,5.70
2013,03,28,00,49,5.70
2013,03,28,00,50,5.70
2013,03,28,00,51,5.70
2013,03,28,00,52,5.70
2013,03,28,00,53,5.70
2013,03,28,00,54,5.60
2013,03,28,00,55,5.60
2013,03,28,00,56,5.60
2013,03,28,00,57,5.60
2013,03,28,00,58,5.60
2013,03,28,00,59,5.60
2013,03,28,01,00,5.60
2013,03,28,01,01,5.50
2013,03,28,01,02,5.50
2013,03,28,01,03,5.50
2013,03,28,01,04,5.50
2013,03,28,01,05,5.50
2013,03,28,01,06,5.50
2013,03,28,01,07,5.50
2013,03,28,01,08,5.50
2013,03,28,01,09,5.40
2013,03,28,01,10,5.40
2013,03,28,01,11,5.40
2013,03,28,01,12,5.40
2013,03,28,01,13,5.40
2013,03,28,01,14,5.40
2013,03,28,01,15,5.40
2013,03,28,01,16,5.40
2013,03,28,01,17,5.40
2013,03,28,01,18,5.40
2013,03,28,01,19,5.40
2013,03,28,01,20,5.40
2013,03,28,01,21,5.40
2013,03,28,01,22,5.40
2013,03,28,01,23,5.30
2013,03,28,01,24,5.40
2013,03,28,01,25,5.40
2013,03,28,01,26,5.40
2013,03,28,01,27,5.40
2013,03,28,01,28,5.40
2013,03,28,01,29,5.40
2013,03,28,01,30,5.40
2013,03,28,01,31,5.40
2013,03,28,01,32,5.40
2013,03,28,01,33,5.40
2013,03,28,01,34,5.40
2013,03,28,01,35,5.40
2013,03,28,01,36,5.40
2013,03,28,01,37,5.30
2013,03,28,01,38,5.30
2013,03,28,01,39,5.30
2013,03,28,01,40,5.30
2013,03,28,01,41,5.30
2013,03,28,01,42,5.30
2013,03,28,01,43,5.30
2013,03,28,01,44,5.30
2013,03,28,01,45,5.30
2013,03,28,01,46,5.30
2013,03,28,01,47,5.30
2013,03,28,01,48,5.30
2013,03,28,01,49,5.30
2013,03,28,01,50,5.30
2013,03,28,01,51,5.30
2013,03,28,01,52,5.30
2013,03,28,01,53,5.30
2013,03,28,01,54,5.40
2013,03,28,01,55,5.40
2013,03,28,01,56,5.40
2013,03,28,01,57,5.40
2013,03,28,01,58,5.40
2013,03,28,01,59,5.40
2013,03,28,02,00,5.40
2013,03,28,02,01,5.30
2013,03,28,02,02,5.30
2013,03,28,02,03,5.30
2013,03,28,02,04,5.30
2013,03,28,02,05,5.30
2013,03,28,02,06,5.30
2013,03,28,02,07,5.30
2013,03,28,02,08,5.30
2013,03,28,02,09,5.30
2013,03,28,02,10,5.30
2013,03,28,02,11,5.30
2013,03,28,02,12,5.20
2013,03,28,02,13,5.20
2013,03,28,02,14,5.20
2013,03,28,02,15,5.20
2013,03,28,02,16,5.20
2013,03,28,02,17,5.20
2013,03,28,02,18,5.10
2013,03,28,02,19,5.10
2013,03,28,02,20,5.10
2013,03,28,02,21,5.20
2013,03,28,02,22,5.20
2013,03,28,02,23,5.20
2013,03,28,02,24,5.20
2013,03,28,02,25,5.20
2013,03,28,02,26,5.20
2013,03,28,02,27,5.10
2013,03,28,02,28,5.10
2013,03,28,02,29,5.10
2013,03,28,02,30,5.10
2013,03,28,02,31,5.10
2013,03,28,02,32,5.10
2013,03,28,02,33,5.10
2013,03,28,02,34,5.10
2013,03,28,02,35,5.10
2013,03,28,02,36,5.10
2013,03,28,02,37,5.00
2013,03,28,02,38,5.00
2013,03,28,02,39,4.90
2013,03,28,02,40,4.90
2013,03,28,02,41,4.90
2013,03,28,02,42,4.90
2013,03,28,02,43,4.90
2013,03,28,02,44,4.80
2013,03,28,02,45,4.80
2013,03,28,02,46,4.90
2013,03,28,02,47,4.90
2013,03,28,02,48,4.90
2013,03,28,02,49,4.90
2013,03,28,02,50,4.90
2013,03,28,02,51,4.80
2013,03,28,02,52,4.80
2013,03,28,02,53,4.70
2013,03,28,02,54,4.70
2013,03,28,02,55,4.70
2013,03,28,02,56,4.60
2013,03,28,02,57,4.60
2013,03,28,02,58,4.60
2013,03,28,02,59,4.60
2013,03,28,03,00,4.60
2013,03,28,03,01,4.60
2013,03,28,03,02,4.60
2013,03,28,03,03,4.50
2013,03,28,03,04,4.50
2013,03,28,03,05,4.50
2013,03,28,03,06,4.50
2013,03,28,03,07,4.40
2013,03,28,03,08,4.40
2013,03,28,03,09,4.40
2013,03,28,03,10,4.40
2013,03,28,03,11,4.40
2013,03,28,03,12,4.40
2013,03,28,03,13,4.40
2013,03,28,03,14,4.30
2013,03,28,03,15,4.30
2013,03,28,03,16,4.30
2013,03,28,03,17,4.30
2013,03,28,03,18,4.30
2013,03,28,03,19,4.30
2013,03,28,03,20,4.30
2013,03,28,03,21,4.30
2013,03,28,03,22,4.30
2013,03,28,03,23,4.30
2013,03,28,03,24,4.30
2013,03,28,03,25,4.40
2013,03,28,03,26,4.50
2013,03,28,03,27,4.50
2013,03,28,03,28,4.60
2013,03,28,03,29,4.70
2013,03,28,03,30,4.70
2013,03,28,03,31,4.80
2013,03,28,03,32,4.80
2013,03,28,03,33,4.80
2013,03,28,03,34,4.80
2013,03,28,03,35,4.80
2013,03,28,03,36,4.80
2013,03,28,03,37,4.70
2013,03,28,03,38,4.70
2013,03,28,03,39,4.60
2013,03,28,03,40,4.50
2013,03,28,03,41,4.50
2013,03,28,03,42,4.40
2013,03,28,03,43,4.40
2013,03,28,03,44,4.40
2013,03,28,03,45,4.30
2013,03,28,03,46,4.30
2013,03,28,03,47,4.30
2013,03,28,03,48,4.30
2013,03,28,03,49,4.30
2013,03,28,03,50,4.30
2013,03,28,03,51,4.30
2013,03,28,03,52,4.30
2013,03,28,03,53,4.30
2013,03,28,03,54,4.30
2013,03,28,03,55,4.30
2013,03,28,03,56,4.30
2013,03,28,03,57,4.30
2013,03,28,03,58,4.20
2013,03,28,03,59,4.20
2013,03,28,04,00,4.20
2013,03,28,04,01,4.10
2013,03,28,04,02,4.10
2013,03,28,04,03,4.10
2013,03,28,04,04,4.00
2013,03,28,04,05,4.10
2013,03,28,04,06,4.00
2013,03,28,04,07,4.00
2013,03,28,04,08,4.00
2013,03,28,04,09,4.00
2013,03,28,04,10,4.00
2013,03,28,04,11,4.00
2013,03,28,04,12,3.90
2013,03,28,04,13,3.90
2013,03,28,04,14,3.90
2013,03,28,04,15,3.90
2013,03,28,04,16,3.90
2013,03,28,04,17,3.90
2013,03,28,04,18,3.90
2013,03,28,04,19,3.90
2013,03,28,04,20,3.90
2013,03,28,04,21,3.80
2013,03,28,04,22,3.80
2013,03,28,04,23,3.80
2013,03,28,04,24,3.80
2013,03,28,04,25,3.80
2013,03,28,04,26,3.80
2013,03,28,04,27,3.90
2013,03,28,04,28,3.90
2013,03,28,04,29,3.90
2013,03,28,04,30,4.00
2013,03,28,04,31,4.00
2013,03,28,04,32,4.10
2013,03,28,04,33,4.10
2013,03,28,04,34,4.00
2013,03,28,04,35,4.00
2013,03,28,04,36,4.00
2013,03,28,04,37,4.00
2013,03,28,04,38,3.90
2013,03,28,04,39,3.90
2013,03,28,04,40,3.90
2013,03,28,04,41,3.90
2013,03,28,04,42,3.90
2013,03,28,04,43,3.90
2013,03,28,04,44,4.00
2013,03,28,04,45,4.00
2013,03,28,04,46,4.10
2013,03,28,04,47,4.20
2013,03,28,04,48,4.20
2013,03,28,04,49,4.20
2013,03,28,04,50,4.20
2013,03,28,04,51,4.20
2013,03,28,04,52,4.20
2013,03,28,04,53,4.20
2013,03,28,04,54,4.20
2013,03,28,04,55,4.20
2013,03,28,04,56,4.20
2013,03,28,04,57,4.20
2013,03,28,04,58,4.20
2013,03,28,04,59,4.10
2013,03,28,05,00,4.10
2013,03,28,05,01,4.10
2013,03,28,05,02,4.10
2013,03,28,05,03,4.20
2013,03,28,05,04,4.20
2013,03,28,05,05,4.20
2013,03,28,05,06,4.20
2013,03,28,05,07,4.20
2013,03,28,05,08,4.20
2013,03,28,05,09,4.20
2013,03,28,05,10,4.10
2013,03,28,05,11,4.10
2013,03,28,05,12,4.10
2013,03,28,05,13,4.10
2013,03,28,05,14,4.10
2013,03,28,05,15,4.10
2013,03,28,05,16,4.10
2013,03,28,05,17,4.10
2013,03,28,05,18,4.10
2013,03,28,05,19,4.10
2013,03,28,05,20,4.10
2013,03,28,05,21,4.10
2013,03,28,05,22,4.10
2013,03,28,05,23,4.10
2013,03,28,05,24,4.00
2013,03,28,05,25,4.00
2013,03,28,05,26,4.00
2013,03,28,05,27,3.90
2013,03,28,05,28,3.90
2013,03,28,05,29,3.90
2013,03,28,05,30,3.90
2013,03,28,05,31,3.90
2013,03,28,05,32,3.90
2013,03,28,05,33,3.90
2013,03,28,05,34,3.90
2013,03,28,05,35,3.90
2013,03,28,05,36,3.90
2013,03,28,05,37,3.90
2013,03,28,05,38,3.90
2013,03,28,05,39,3.90
2013,03,28,05,40,3.90
2013,03,28,05,41,4.00
2013,03,28,05,42,4.00
2013,03,28,05,43,4.00
2013,03,28,05,44,4.00
2013,03,28,05,45,4.00
2013,03,28,05,46,4.00
2013,03,28,05,47,4.00
2013,03,28,05,48,4.00
2013,03,28,05,49,4.00
2013,03,28,05,50,4.10
2013,03,28,05,51,4.10
2013,03,28,05,52,4.10
2013,03,28,05,53,4.20
2013,03,28,05,54,4.20
2013,03,28,05,55,4.20
2013,03,28,05,56,4.20
2013,03,28,05,57,4.30
2013,03,28,05,58,4.30
2013,03,28,05,59,4.30
2013,03,28,06,00,4.30
2013,03,28,06,01,4.30
2013,03,28,06,02,4.20
2013,03,28,06,03,4.20
2013,03,28,06,04,4.10
2013,03,28,06,05,4.00
2013,03,28,06,06,4.00
2013,03,28,06,07,3.90
2013,03,28,06,08,3.90
2013,03,28,06,09,3.90
2013,03,28,06,10,3.90
2013,03,28,06,11,3.90
2013,03,28,06,12,3.90
2013,03,28,06,13,3.90
2013,03,28,06,14,3.90
2013,03,28,06,15,3.90
2013,03,28,06,16,3.90
2013,03,28,06,17,4.00
2013,03,28,06,18,4.00
2013,03,28,06,19,4.00
2013,03,28,06,20,4.00
2013,03,28,06,21,4.00
2013,03,28,06,22,4.10
2013,03,28,06,23,4.10
2013,03,28,06,24,4.10
2013,03,28,06,25,4.10
2013,03,28,06,26,4.10
2013,03,28,06,27,4.10
2013,03,28,06,28,4.10
2013,03,28,06,29,4.10
2013,03,28,06,30,4.10
2013,03,28,06,31,4.10
2013,03,28,06,32,4.10
2013,03,28,06,33,4.10
2013,03,28,06,34,4.10
2013,03,28,06,35,4.10
2013,03,28,06,36,4.10
2013,03,28,06,37,4.10
2013,03,28,06,38,4.10
2013,03,28,06,39,4.10
2013,03,28,06,40,4.10
2013,03,28,06,41,4.10
2013,03,28,06,42,4.10
2013,03,28,06,43,4.10
2013,03,28,06,44,4.10
2013,03,28,06,45,4.10
2013,03,28,06,46,4.10
2013,03,28,06,47,4.10
2013,03,28,06,48,4.10
2013,03,28,06,49,4.10
2013,03,28,06,50,4.10
2013,03,28,06,51,4.10
2013,03,28,06,52,4.10
2013,03,28,06,53,4.10
2013,03,28,06,54,4.10
2013,03,28,06,55,4.10
2013,03,28,06,56,4.10
2013,03,28,06,57,4.10
2013,03,28,06,58,4.10
2013,03,28,06,59,4.10
2013,03,28,07,00,4.10
2013,03,28,07,01,4.00
2013,03,28,07,02,4.00
2013,03,28,07,03,4.00
2013,03,28,07,04,4.00
2013,03,28,07,05,4.00
2013,03,28,07,06,4.00
2013,03,28,07,07,4.00
2013,03,28,07,08,4.00
2013,03,28,07,09,4.00
2013,03,28,07,10,4.00
2013,03,28,07,11,4.10
2013,03,28,07,12,4.00
2013,03,28,07,13,4.00
2013,03,28,07,14,4.00
2013,03,28,07,15,4.00
2013,03,28,07,16,4.00
2013,03,28,07,17,4.00
2013,03,28,07,18,4.00
2013,03,28,07,19,4.00
2013,03,28,07,20,3.90
2013,03,28,07,21,3.90
2013,03,28,07,22,3.90
2013,03,28,07,23,3.90
2013,03,28,07,24,3.90
2013,03,28,07,25,3.80
2013,03,28,07,26,3.80
2013,03,28,07,27,3.80
2013,03,28,07,28,3.80
2013,03,28,07,29,3.80
2013,03,28,07,30,3.80
2013,03,28,07,31,3.80
2013,03,28,07,32,3.80
2013,03,28,07,33,3.80
2013,03,28,07,34,3.80
2013,03,28,07,35,3.80
2013,03,28,07,36,3.80
2013,03,28,07,37,3.80
2013,03,28,07,38,3.80
2013,03,28,07,39,3.70
2013,03,28,07,40,3.70
2013,03,28,07,41,3.70
2013,03,28,07,42,3.70
2013,03,28,07,43,3.70
2013,03,28,07,44,3.70
2013,03,28,07,45,3.70
2013,03,28,07,46,3.70
2013,03,28,07,47,3.70
2013,03,28,07,48,3.70
2013,03,28,07,49,3.70
2013,03,28,07,50,3.70
2013,03,28,07,51,3.70
2013,03,28,07,52,3.70
2013,03,28,07,53,3.70
2013,03,28,07,54,3.70
2013,03,28,07,55,3.70
2013,03,28,07,56,3.70
2013,03,28,07,57,3.70
2013,03,28,07,58,3.70
2013,03,28,07,59,3.70
2013,03,28,08,00,3.70
2013,03,28,08,01,3.70
2013,03,28,08,02,3.70
2013,03,28,08,03,3.70
2013,03,28,08,04,3.80
2013,03,28,08,05,3.80
2013,03,28,08,06,3.80
2013,03,28,08,07,3.80
2013,03,28,08,08,3.80
2013,03,28,08,09,3.80
2013,03,28,08,10,3.80
2013,03,28,08,11,3.90
2013,03,28,08,12,3.90
2013,03,28,08,13,3.90
2013,03,28,08,14,3.90
2013,03,28,08,15,4.00
2013,03,28,08,16,4.00
2013,03,28,08,17,4.00
2013,03,28,08,18,4.00
2013,03,28,08,19,4.00
2013,03,28,08,20,4.00
2013,03,28,08,21,4.00
2013,03,28,08,22,4.00
2013,03,28,08,23,4.00
2013,03,28,08,24,4.10
2013,03,28,08,25,4.10
2013,03,28,08,26,4.10
2013,03,28,08,27,4.10
2013,03,28,08,28,4.10
2013,03,28,08,29,4.10
2013,03,28,08,30,4.10
2013,03,28,08,31,4.10
2013,03,28,08,32,4.10
2013,03,28,08,33,4.20
2013,03,28,08,34,4.20
2013,03,28,08,35,4.20
2013,03,28,08,36,4.20
2013,03,28,08,37,4.20
2013,03,28,08,38,4.20
2013,03,28,08,39,4.20
2013,03,28,08,40,4.30
2013,03,28,08,41,4.30
2013,03,28,08,42,4.30
2013,03,28,08,43,4.30
2013,03,28,08,44,4.30
2013,03,28,08,45,4.40
2013,03,28,08,46,4.40
2013,03,28,08,47,4.40
2013,03,28,08,48,4.50
2013,03,28,08,49,4.50
2013,03,28,08,50,4.60
2013,03,28,08,51,4.60
2013,03,28,08,52,4.60
2013,03,28,08,53,4.60
2013,03,28,08,54,4.70
2013,03,28,08,55,4.70
2013,03,28,08,56,4.70
2013,03,28,08,57,4.70
2013,03,28,08,58,4.80
2013,03,28,08,59,4.80
2013,03,28,09,00,4.80
2013,03,28,09,01,4.80
2013,03,28,09,02,4.90
2013,03,28,09,03,4.90
2013,03,28,09,04,5.00
2013,03,28,09,05,5.00
2013,03,28,09,06,5.10
2013,03,28,09,07,5.10
2013,03,28,09,08,5.10
2013,03,28,09,09,5.20
2013,03,28,09,10,5.20
2013,03,28,09,11,5.20
2013,03,28,09,12,5.30
2013,03,28,09,13,5.30
2013,03,28,09,14,5.30
2013,03,28,09,15,5.40
2013,03,28,09,16,5.40
2013,03,28,09,17,5.50
2013,03,28,09,18,5.50
2013,03,28,09,19,5.60
2013,03,28,09,20,5.60
2013,03,28,09,21,5.70
2013,03,28,09,22,5.70
2013,03,28,09,23,5.70
2013,03,28,09,24,5.70
2013,03,28,09,25,5.80
2013,03,28,09,26,5.80
2013,03,28,09,27,5.80
2013,03,28,09,28,5.80
2013,03,28,09,29,5.90
2013,03,28,09,30,5.90
2013,03,28,09,31,6.00
2013,03,28,09,32,6.00
2013,03,28,09,33,6.10
2013,03,28,09,34,6.10
2013,03,28,09,35,6.10
2013,03,28,09,36,6.20
2013,03,28,09,37,6.20
2013,03,28,09,38,6.20
2013,03,28,09,39,6.20
2013,03,28,09,40,6.30
2013,03,28,09,41,6.30
2013,03,28,09,42,6.30
2013,03,28,09,43,6.30
2013,03,28,09,44,6.40
2013,03,28,09,45,6.40
2013,03,28,09,46,6.40
2013,03,28,09,47,6.40
2013,03,28,09,48,6.50
2013,03,28,09,49,6.50
2013,03,28,09,50,6.50
2013,03,28,09,51,6.50
2013,03,28,09,52,6.60
2013,03,28,09,53,6.60
2013,03,28,09,54,6.60
2013,03,28,09,55,6.60
2013,03,28,09,56,6.60
2013,03,28,09,57,6.60
2013,03,28,09,58,6.60
2013,03,28,09,59,6.60
2013,03,28,10,00,6.60
2013,03,28,10,01,6.60
2013,03,28,10,02,6.60
2013,03,28,10,03,6.60
2013,03,28,10,04,6.60
2013,03,28,10,05,6.60
2013,03,28,10,06,6.60
2013,03,28,10,07,6.70
2013,03,28,10,08,6.70
2013,03,28,10,09,6.70
2013,03,28,10,10,6.70
2013,03,28,10,11,6.70
2013,03,28,10,12,6.70
2013,03,28,10,13,6.70
2013,03,28,10,14,6.70
2013,03,28,10,15,6.70
2013,03,28,10,16,6.70
2013,03,28,10,17,6.80
2013,03,28,10,18,6.80
2013,03,28,10,19,6.80
2013,03,28,10,20,6.80
2013,03,28,10,21,6.80
2013,03,28,10,22,6.80
2013,03,28,10,23,6.80
2013,03,28,10,24,6.80
2013,03,28,10,25,6.80
2013,03,28,10,26,6.80
2013,03,28,10,27,6.80
2013,03,28,10,28,6.80
2013,03,28,10,29,6.80
2013,03,28,10,30,6.80
2013,03,28,10,31,6.90
2013,03,28,10,32,6.90
2013,03,28,10,33,6.90
2013,03,28,10,34,6.90
2013,03,28,10,35,6.90
2013,03,28,10,36,6.90
2013,03,28,10,37,7.00
2013,03,28,10,38,7.00
2013,03,28,10,39,7.10
2013,03,28,10,40,7.10
2013,03,28,10,41,7.10
2013,03,28,10,42,7.10
2013,03,28,10,43,7.20
2013,03,28,10,44,7.20
2013,03,28,10,45,7.20
2013,03,28,10,46,7.20
2013,03,28,10,47,7.20
2013,03,28,10,48,7.20
2013,03,28,10,49,7.20
2013,03,28,10,50,7.20
2013,03,28,10,51,7.20
2013,03,28,10,52,7.20
2013,03,28,10,53,7.20
2013,03,28,10,54,7.20
2013,03,28,10,55,7.20
2013,03,28,10,56,7.20
2013,03,28,10,57,7.20
2013,03,28,10,58,7.20
2013,03,28,10,59,7.20
2013,03,28,11,00,7.30
2013,03,28,11,01,7.30
2013,03,28,11,02,7.30
2013,03,28,11,03,7.30
2013,03,28,11,04,7.30
2013,03,28,11,05,7.30
2013,03,28,11,06,7.30
2013,03,28,11,07,7.30
2013,03,28,11,08,7.40
2013,03,28,11,09,7.40
2013,03,28,11,10,7.40
2013,03,28,11,11,7.50
2013,03,28,11,12,7.50
2013,03,28,11,13,7.60
2013,03,28,11,14,7.60
2013,03,28,11,15,7.60
2013,03,28,11,16,7.70
2013,03,28,11,17,7.70
2013,03,28,11,18,7.80
2013,03,28,11,19,7.80
2013,03,28,11,20,7.80
2013,03,28,11,21,7.90
2013,03,28,11,22,7.90
2013,03,28,11,23,8.00
2013,03,28,11,24,8.00
2013,03,28,11,25,8.10
2013,03,28,11,26,8.20
2013,03,28,11,27,8.20
2013,03,28,11,28,8.30
2013,03,28,11,29,8.30
2013,03,28,11,30,8.30
2013,03,28,11,31,8.30
2013,03,28,11,32,8.40
2013,03,28,11,33,8.40
2013,03,28,11,34,8.40
2013,03,28,11,35,8.50
2013,03,28,11,36,8.60
2013,03,28,11,37,8.60
2013,03,28,11,38,8.60
2013,03,28,11,39,8.70
2013,03,28,11,40,8.70
2013,03,28,11,41,8.70
2013,03,28,11,42,8.70
2013,03,28,11,43,8.70
2013,03,28,11,44,8.70
2013,03,28,11,45,8.70
2013,03,28,11,46,8.70
2013,03,28,11,47,8.70
2013,03,28,11,48,8.70
2013,03,28,11,49,8.70
2013,03,28,11,50,8.80
2013,03,28,11,51,8.80
2013,03,28,11,52,8.80
2013,03,28,11,53,8.80
2013,03,28,11,54,8.80
2013,03,28,11,55,8.90
2013,03,28,11,56,8.90
2013,03,28,11,57,8.90
2013,03,28,11,58,9.00
2013,03,28,11,59,9.00
2013,03,28,12,00,9.10
2013,03,28,12,01,9.10
2013,03,28,12,02,9.10
2013,03,28,12,03,9.20
2013,03,28,12,04,9.20
2013,03,28,12,05,9.30
2013,03,28,12,06,9.40
2013,03,28,12,07,9.50
2013,03,28,12,08,9.60
2013,03,28,12,09,9.70
2013,03,28,12,10,9.70
2013,03,28,12,11,9.80
2013,03,28,12,12,9.80
2013,03,28,12,13,9.80
2013,03,28,12,14,9.80
2013,03,28,12,15,9.80
2013,03,28,12,16,9.80
2013,03,28,12,17,9.80
2013,03,28,12,18,9.70
2013,03,28,12,19,9.70
2013,03,28,12,20,9.70
2013,03,28,12,21,9.70
2013,03,28,12,22,9.70
2013,03,28,12,23,9.70
2013,03,28,12,24,9.70
2013,03,28,12,25,9.60
2013,03,28,12,26,9.60
2013,03,28,12,27,9.60
2013,03,28,12,28,9.60
2013,03,28,12,29,9.70
2013,03,28,12,30,9.70
2013,03,28,12,31,9.80
2013,03,28,12,32,9.90
2013,03,28,12,33,10.00
2013,03,28,12,34,10.10
2013,03,28,12,35,10.10
2013,03,28,12,36,10.20
2013,03,28,12,37,10.30
2013,03,28,12,38,10.40
2013,03,28,12,39,10.50
2013,03,28,12,40,10.60
2013,03,28,12,41,10.70
2013,03,28,12,42,10.80
2013,03,28,12,43,10.90
2013,03,28,12,44,11.00
2013,03,28,12,45,11.10
2013,03,28,12,46,11.20
2013,03,28,12,47,11.30
2013,03,28,12,48,11.50
2013,03,28,12,49,11.50
2013,03,28,12,50,11.60
2013,03,28,12,51,11.80
2013,03,28,12,52,11.90
2013,03,28,12,53,12.00
2013,03,28,12,54,12.00
2013,03,28,12,55,12.10
2013,03,28,12,56,12.20
2013,03,28,12,57,12.20
2013,03,28,12,58,12.30
2013,03,28,12,59,12.30
2013,03,28,13,00,12.40
2013,03,28,13,01,12.50
2013,03,28,13,02,12.50
2013,03,28,13,03,12.60
2013,03,28,13,04,12.70
2013,03,28,13,05,12.70
2013,03,28,13,06,12.80
2013,03,28,13,07,12.90
2013,03,28,13,08,13.00
2013,03,28,13,09,13.00
2013,03,28,13,10,13.10
2013,03,28,13,11,13.10
2013,03,28,13,12,13.10
2013,03,28,13,13,13.10
2013,03,28,13,14,13.10
2013,03,28,13,15,13.10
2013,03,28,13,16,13.20
2013,03,28,13,17,13.20
2013,03,28,13,18,13.20
2013,03,28,13,19,13.30
2013,03,28,13,20,13.50
2013,03,28,13,21,13.60
2013,03,28,13,22,13.60
2013,03,28,13,23,13.60
2013,03,28,13,24,13.50
2013,03,28,13,25,13.50
2013,03,28,13,26,13.30
2013,03,28,13,27,13.20
2013,03,28,13,28,13.10
2013,03,28,13,29,13.00
2013,03,28,13,30,12.90
2013,03,28,13,31,12.80
2013,03,28,13,32,12.70
2013,03,28,13,33,12.60
2013,03,28,13,34,12.60
2013,03,28,13,35,12.50
2013,03,28,13,36,12.50
2013,03,28,13,37,12.50
2013,03,28,13,38,12.50
2013,03,28,13,39,12.50
2013,03,28,13,40,12.50
2013,03,28,13,41,12.60
2013,03,28,13,42,12.60
2013,03,28,13,43,12.60
2013,03,28,13,44,12.60
2013,03,28,13,45,12.60
2013,03,28,13,46,12.60
2013,03,28,13,47,12.70
2013,03,28,13,48,12.70
2013,03,28,13,49,12.70
2013,03,28,13,50,12.60
2013,03,28,13,51,12.60
2013,03,28,13,52,12.60
2013,03,28,13,53,12.60
2013,03,28,13,54,12.60
2013,03,28,13,55,12.60
2013,03,28,13,56,12.60
2013,03,28,13,57,12.60
2013,03,28,13,58,12.60
2013,03,28,13,59,12.70
2013,03,28,14,00,12.70
2013,03,28,14,01,12.80
2013,03,28,14,02,12.80
2013,03,28,14,03,12.80
2013,03,28,14,04,12.80
2013,03,28,14,05,12.80
2013,03,28,14,06,12.80
2013,03,28,14,07,12.90
2013,03,28,14,08,12.90
2013,03,28,14,09,12.90
2013,03,28,14,10,13.00
2013,03,28,14,11,13.10
2013,03,28,14,12,13.20
2013,03,28,14,13,13.30
2013,03,28,14,14,13.40
2013,03,28,14,15,13.50
2013,03,28,14,16,13.60
2013,03,28,14,17,13.70
2013,03,28,14,18,13.80
2013,03,28,14,19,13.80
2013,03,28,14,20,13.90
2013,03,28,14,21,14.00
2013,03,28,14,22,14.00
2013,03,28,14,23,14.00
2013,03,28,14,24,14.00
2013,03,28,14,25,14.00
2013,03,28,14,26,14.00
2013,03,28,14,27,14.00
2013,03,28,14,28,14.10
2013,03,28,14,29,14.20
2013,03,28,14,30,14.30
2013,03,28,14,31,14.40
2013,03,28,14,32,14.40
2013,03,28,14,33,14.50
2013,03,28,14,34,14.60
2013,03,28,14,35,14.70
2013,03,28,14,36,14.70
2013,03,28,14,37,14.70
2013,03,28,14,38,14.70
2013,03,28,14,39,14.70
2013,03,28,14,40,14.70
2013,03,28,14,41,14.70
2013,03,28,14,42,14.80
2013,03,28,14,43,14.80
2013,03,28,14,44,14.80
2013,03,28,14,45,14.70
2013,03,28,14,46,14.70
2013,03,28,14,47,14.70
2013,03,28,14,48,14.70
2013,03,28,14,49,14.70
2013,03,28,14,50,14.80
2013,03,28,14,51,14.80
2013,03,28,14,52,14.80
2013,03,28,14,53,14.80
2013,03,28,14,54,14.80
2013,03,28,14,55,14.80
2013,03,28,14,56,14.80
2013,03,28,14,57,14.80
2013,03,28,14,58,14.70
2013,03,28,14,59,14.70
2013,03,28,15,00,14.70
2013,03,28,15,01,14.70
2013,03,28,15,02,14.70
2013,03,28,15,03,14.60
2013,03,28,15,04,14.50
2013,03,28,15,05,14.40
2013,03,28,15,06,14.30
2013,03,28,15,07,14.20
2013,03,28,15,08,14.10
2013,03,28,15,09,14.00
2013,03,28,15,10,13.90
2013,03,28,15,11,13.80
2013,03,28,15,12,13.80
2013,03,28,15,13,13.80
2013,03,28,15,14,13.80
2013,03,28,15,15,13.90
2013,03,28,15,16,14.00
2013,03,28,15,17,14.10
2013,03,28,15,18,14.10
2013,03,28,15,19,14.20
2013,03,28,15,20,14.30
2013,03,28,15,21,14.40
2013,03,28,15,22,14.50
2013,03,28,15,23,14.50
2013,03,28,15,24,14.60
2013,03,28,15,25,14.70
2013,03,28,15,26,14.70
2013,03,28,15,27,14.80
2013,03,28,15,28,14.80
2013,03,28,15,29,14.90
2013,03,28,15,30,15.00
2013,03,28,15,31,15.00
2013,03,28,15,32,15.10
2013,03,28,15,33,15.20
2013,03,28,15,34,15.30
2013,03,28,15,35,15.50
2013,03,28,15,36,15.70
2013,03,28,15,37,15.80
2013,03,28,15,38,15.90
2013,03,28,15,39,15.90
2013,03,28,15,40,16.00
2013,03,28,15,41,16.00
2013,03,28,15,42,16.00
2013,03,28,15,43,16.00
2013,03,28,15,44,15.90
2013,03,28,15,45,15.90
2013,03,28,15,46,15.90
2013,03,28,15,47,15.80
2013,03,28,15,48,15.70
2013,03,28,15,49,15.60
2013,03,28,15,50,15.40
2013,03,28,15,51,15.30
2013,03,28,15,52,15.20
2013,03,28,15,53,15.10
2013,03,28,15,54,14.90
2013,03,28,15,55,14.80
2013,03,28,15,56,14.60
2013,03,28,15,57,14.50
2013,03,28,15,58,14.40
2013,03,28,15,59,14.30
2013,03,28,16,00,14.20
2013,03,28,16,01,14.20
2013,03,28,16,02,14.20
2013,03,28,16,03,14.20
2013,03,28,16,04,14.10
2013,03,28,16,05,14.10
2013,03,28,16,06,14.10
2013,03,28,16,07,14.00
2013,03,28,16,08,14.00
2013,03,28,16,09,13.90
2013,03,28,16,10,13.90
2013,03,28,16,11,14.00
2013,03,28,16,12,14.00
2013,03,28,16,13,14.00
2013,03,28,16,14,14.00
2013,03,28,16,15,13.90
2013,03,28,16,16,14.00
2013,03,28,16,17,14.00
2013,03,28,16,18,14.00
2013,03,28,16,19,14.00
2013,03,28,16,20,14.00
2013,03,28,16,21,14.00
2013,03,28,16,22,14.10
2013,03,28,16,23,14.10
2013,03,28,16,24,14.10
2013,03,28,16,25,14.20
2013,03,28,16,26,14.20
2013,03,28,16,27,14.20
2013,03,28,16,28,14.30
2013,03,28,16,29,14.20
2013,03,28,16,30,14.20
2013,03,28,16,31,14.20
2013,03,28,16,32,14.20
2013,03,28,16,33,14.20
2013,03,28,16,34,14.20
2013,03,28,16,35,14.20
2013,03,28,16,36,14.20
2013,03,28,16,37,14.20
2013,03,28,16,38,14.30
2013,03,28,16,39,14.30
2013,03,28,16,40,14.30
2013,03,28,16,41,14.40
2013,03,28,16,42,14.30
2013,03,28,16,43,14.30
2013,03,28,16,44,14.30
2013,03,28,16,45,14.20
2013,03,28,16,46,14.20
2013,03,28,16,47,14.10
2013,03,28,16,48,14.10
2013,03,28,16,49,14.10
2013,03,28,16,50,14.10
2013,03,28,16,51,14.10
2013,03,28,16,52,14.10
2013,03,28,16,53,14.20
2013,03,28,16,54,14.30
2013,03,28,16,55,14.40
2013,03,28,16,56,14.50
2013,03,28,16,57,14.60
2013,03,28,16,58,14.70
2013,03,28,16,59,14.70
2013,03,28,17,00,14.60
2013,03,28,17,01,14.60
2013,03,28,17,02,14.50
2013,03,28,17,03,14.40
2013,03,28,17,04,14.40
2013,03,28,17,05,14.40
2013,03,28,17,06,14.40
2013,03,28,17,07,14.50
2013,03,28,17,08,14.60
2013,03,28,17,09,14.70
2013,03,28,17,10,14.80
2013,03,28,17,11,14.80
2013,03,28,17,12,14.80
2013,03,28,17,13,14.70
2013,03,28,17,14,14.60
2013,03,28,17,15,14.50
2013,03,28,17,16,14.40
2013,03,28,17,17,14.30
2013,03,28,17,18,14.20
2013,03,28,17,19,14.10
2013,03,28,17,20,14.00
2013,03,28,17,21,13.90
2013,03,28,17,22,13.80
2013,03,28,17,23,13.70
2013,03,28,17,24,13.70
2013,03,28,17,25,13.70
2013,03,28,17,26,13.70
2013,03,28,17,27,13.70
2013,03,28,17,28,13.70
2013,03,28,17,29,13.80
2013,03,28,17,30,13.80
2013,03,28,17,31,13.80
2013,03,28,17,32,13.90
2013,03,28,17,33,13.90
2013,03,28,17,34,13.90
2013,03,28,17,35,13.90
2013,03,28,17,36,13.90
2013,03,28,17,37,13.80
2013,03,28,17,38,13.90
2013,03,28,17,39,13.90
2013,03,28,17,40,13.80
2013,03,28,17,41,13.80
2013,03,28,17,42,13.70
2013,03,28,17,43,13.60
2013,03,28,17,44,13.50
2013,03,28,17,45,13.40
2013,03,28,17,46,13.40
2013,03,28,17,47,13.30
2013,03,28,17,48,13.30
2013,03,28,17,49,13.40
2013,03,28,17,50,13.40
2013,03,28,17,51,13.30
2013,03,28,17,52,13.30